Showing default

DX 1, 40071

Orbit data source: Space-Track

DX 1, 40071 is a payload satellite owned by Dauria (CIS) in SSO that was launched on Tue, 08 Jul 2014 UTC via a SOYUZ-2-1B launch vehicle from the Tyuratam Missile And Space Complex (TTMTR). Payload-class satellites include a variety of spacecraft equipped with specific instruments for various scientific and technological missions. These include communications satellites like Starlink; space stations such as the ISS; scientific satellites like the Hubble; Earth observation satellites from companies like Planet Labs, Umbra, and HawkEye 360; GPS; miniature CubeSats for education and research; and military/defense satellites.

Loading next visibility...
Identifier
40071, 2014-037C
Orbit
SSO
Last TLE update
4 hours ago
Origin
Manufacturer
Dauria
Mission
Operational Commercial Technology
Bus & Motor
DX-1, Unknown motor
Mass
21 kg wet, 21 kg dry
Launch date (UTC)
2014-07-08 (11 years ago)
Launch vehicle
SOYUZ-2-1B
Launch site
Tyuratam Missile And Space Complex (TTMTR)
Object type
Payload
Rocket body
Debris
Shape & HBR
Box, 0.2 m
Radar Cross Section
0.060 m², Medium (>0.1 m² and < 1m²)

Expand to show TLE details & history

TLE from 4 hours ago
0 DX 1
1 40071U 14037C   25190.14287198  .00001132  00000-0  12923-3 0  9991
2 40071  98.3446 127.4872 0006419 316.7591  43.3119 14.88246460595138
Epoch: 2025-07-09T03:25Z
TLE epoch observation values (Epoch: 2025-07-09T03:25:44.139Z)
Latitude
-0.00005°
Longitude
148.72555°
Altitude
603.173 km
Speed
7.56 km/s
True Right ascension
08h 29m 56s
True Declination
0° 00' 00"
Sunlit
Object was in daylight at epoch
Visualization orbit readout
Latitude
-5.2516°
Longitude
-31.86489°
Altitude
610.207 km
Speed
7.552 km/s
Apparent Right ascension
22h 09m 45s
Apparent Declination
-62° 54' 55"
Sunlit
Object is in full shadow
Visualization observer readout
Local Sidereal Time
19:38:39
Azimuth
163.028° S
Elevation
-17.173°
Doppler factor
1
Orbital elements
Apogee altitude
604.944 km
Perigee altitude
595.985 km
Semi-major axis
6,978.602 km
Eccentricity
0.00064
Inclination
98.3446°
RAAN
127.4872°
Arg. of periapsis
316.7591°
True anomaly
Unknown
Mean anomaly
43.3119°
Eccentric anomaly
Unknown
Mean motion
3.72298 °/min
Orbital period
96.7 mins
BSTAR
0.00012923
Loading maneuver chart data...
Loading SW <> Apogee altitude chart data...
Loading historical data...
Loading historical data...
Loading historical data...
Loading historical data...
Loading historical data...
Loading historical data...
Loading historical data...

DX 1 Visibility forecast

Observer location: undefined°, undefined°

Span
Click to sort rows by Start time (UTC) header in descending order
Start Az.
Max El. time (UTC)
Max El. Az.
Max El.
End time (UTC)
End Az.
7 mins2025-07-09 08:50:09.575Z10.341° NNE2025-07-09 08:53:09.575Z350.373° N42.818°2025-07-09 08:57:09.575Z198.468° SSW
6 mins2025-07-09 19:42:09.575Z155.798° SSE2025-07-09 19:45:09.575Z37.817° NE42.891°2025-07-09 19:48:09.575Z352.521° N
|